STARLINK-3087, 49175

Orbit data source: Space-Track

STARLINK-3087, 49175 is a payload satellite owned by SpaceX/Seattle (US) in LEO that was launched on Tue, 14 Sep 2021 UTC via an FALCON 9 launch vehicle from the Air Force Western Test Range (AFWTR). Payload-class satellites include a variety of spacecraft equipped with specific instruments for various scientific and technological missions. These include communications satellites like Starlink; space stations such as the ISS; scientific satellites like the Hubble; Earth observation satellites from companies like Planet Labs, Umbra, and HawkEye 360; GPS; miniature CubeSats for education and research; and military/defense satellites.

Loading next visibility...
Identifier
49175, 2021-082AX
Orbit
LEO
Country
Flag of USUS
Related business
Manufacturer
SpaceX/Seattle
Mission
Operational Commercial Communications
Bus & Motor
STARLINK, Unknown motor
Mass
297 kg wet, ~275 kg dry
Launch date (UTC)
2021-09-14 (4 years ago)
Launch vehicle
FALCON 9
Launch site
Air Force Western Test Range (AFWTR)
Object type
Payload
Rocket body
Debris
Shape & HBR
Box + 1 Pan, 10.1 m
Radar Cross Section
13.562 m², Large (>1 m²)

Expand to show TLE details & history
Last TLE update: 17 hours ago

TLE from 17 hours ago
0 STARLINK-3087
1 49175U 21082AX  26035.27511230  .00000232  00000-0  27745-4 0  9992
2 49175  70.0018 359.5204 0002765 269.2726  90.8116 14.97520222241440
Epoch: 2026-02-04T06:36Z
TLE epoch observation values (Epoch: 2026-02-04T06:36:09.702Z)
Latitude
-0.00002°
Longitude
126.03593°
Altitude
577.012 km
Speed
7.572 km/s
True Right ascension
23h 58m 04s
True Declination
0° 00' 00"
Sunlit
Object was in daylight at epoch
Visualization orbit readout
Latitude
Unknown
Longitude
Unknown
Altitude
Unknown
Speed
Unknown
Apparent Right ascension
Unknown
Apparent Declination
Unknown
Sunlit
N/A
Visualization observer readout
Local Sidereal Time
01:39:35
Azimuth
Unknown
Elevation
Unknown
Doppler factor
Unknown
Orbital elements
Apogee altitude
574.432 km
Perigee altitude
570.588 km
Semi-major axis
6,950.647 km
Eccentricity
0.00028
Inclination
70.0018°
RAAN
359.5204°
Arg. of periapsis
269.2726°
True anomaly
90.84328°
Mean anomaly
90.8116°
Eccentric anomaly
90.82744°
Mean motion
3.74546 °/min
Orbital period
96.12 mins
BSTAR
0.000027745
Loading maneuver chart data...
Computing Atmospheric mass density...
Loading historical data...
Loading historical data...
Loading historical data...
Loading historical data...
Loading historical data...
Loading historical data...
Loading historical data...

Documentation

Showing up to 5 results
|